Weather History for Mackall AAF, NC

Change the Weather History Date:

Saturday, December 22, 2012

  Actual Average Record
Temperature  
Mean Temperature 39 °F -  
Max Temperature 50 °F 52 °F 77 °F (2013)
Min Temperature 26 °F 32 °F 18 °F (2008)
Degree Days  
Heating Degree Days 26    
Moisture  
Dew Point 23 °F    
Average Humidity 61    
Maximum Humidity 96    
Minimum Humidity 26    
Precipitation  
Precipitation 0.00 in - - ()
Sea Level Pressure  
Sea Level Pressure 30.06 in    
Wind  
Wind Speed 7 mph (West)    
Max Wind Speed 16 mph    
Max Gust Speed 21 mph    
Visibility 10 miles    
Events      
Averages and records for this station are not official NWS values.
T = Trace of Precipitation, MM = Missing Value Source: NWS Daily Summary

Daily Weather History Graph

Daily Weather History Graph

Search for Another Location

Airport:

Trip Planner

Search our weather history database for the weather conditions in past years. The results will help you decide how hot, cold, wet, or windy it might be!

Date:

Astronomy

Dec. 22, 2012 Rise Set
Actual Time 7:22 AM EST 5:10 PM EST
Civil Twilight 6:54 AM EST 5:39 PM EST
Nautical Twilight 6:22 AM EST 6:10 PM EST
Astronomical Twilight 5:52 AM EST 6:41 PM EST
Moon 1:21 PM EST (12/22) 2:13 AM EST (12/22)
Length of Visible Light 10h 44m
Length of Day
9h 47m
Waxing Gibbous, 73% of the Moon is Illuminated
Dec 22
Waxing Gibbous
Dec 28
Full
Jan 4
Last Quarter
Jan 11
New
Jan 18
First Quarter

Hourly Weather History & Observations

Time (EST) Temp. Windchill Dew Point Humidity Pressure Visibility Wind Dir Wind Speed Gust Speed Precip Events Conditions
12:55 AM 35.1 °F 29.3 °F 23.2 °F 62% 29.90 in 10.0 mi WNW 6.9 mph - N/A   Clear
1:55 AM 32.4 °F 29.1 °F 24.3 °F 72% 29.93 in 10.0 mi Variable 3.5 mph - N/A   Clear
2:55 AM 29.8 °F 26.3 °F 24.6 °F 81% 29.94 in 10.0 mi West 3.5 mph - N/A   Clear
3:55 AM 31.5 °F 24.2 °F 24.4 °F 75% 29.95 in 10.0 mi West 8.1 mph - N/A   Clear
4:55 AM 30.7 °F 24.1 °F 23.5 °F 75% 29.98 in 10.0 mi West 6.9 mph - N/A   Clear
5:55 AM 31.5 °F 24.9 °F 23.5 °F 73% 30.00 in 10.0 mi West 6.9 mph - N/A   Clear
6:55 AM 30.9 °F 24.3 °F 23.0 °F 72% 30.05 in 10.0 mi West 6.9 mph - N/A   Clear
7:55 AM 32.4 °F 25.3 °F 22.6 °F 67% 30.08 in 10.0 mi West 8.1 mph - N/A   Clear
8:55 AM 35.4 °F 28.4 °F 23.0 °F 61% 30.11 in 10.0 mi West 9.2 mph - N/A   Clear
9:55 AM 38.8 °F 30.0 °F 22.1 °F 51% 30.13 in 10.0 mi West 16.1 mph 20.7 mph N/A   Clear
10:55 AM 41.4 °F 35.7 °F 20.8 °F 44% 30.12 in 10.0 mi West 9.2 mph 16.1 mph N/A   Clear
11:55 AM 43.9 °F 37.5 °F 20.3 °F 39% 30.10 in 10.0 mi West 12.7 mph 17.3 mph N/A   Clear
12:55 PM 47.1 °F - 18.5 °F 32% 30.08 in 10.0 mi West 15.0 mph 18.4 mph N/A   Clear
1:55 PM 49.3 °F - 18.1 °F 29% 30.06 in 10.0 mi West 11.5 mph - N/A   Clear
2:55 PM 50.9 °F - 17.1 °F 26% 30.06 in 10.0 mi West 11.5 mph - N/A   Clear
3:55 PM 50.9 °F - 18.3 °F 28% 30.08 in 10.0 mi WSW 10.4 mph - N/A   Clear
5:55 PM 38.8 °F 36.5 °F 24.4 °F 56% 30.11 in 10.0 mi SSW 3.5 mph - N/A   Clear
6:55 PM 35.2 °F 30.3 °F 27.5 °F 73% 30.12 in 10.0 mi SW 5.8 mph - N/A   Clear
7:55 PM 36.9 °F 33.1 °F 23.7 °F 59% 30.12 in 10.0 mi WSW 4.6 mph - N/A   Clear
8:55 PM 31.6 °F 28.3 °F 26.8 °F 82% 30.13 in 10.0 mi SW 3.5 mph - N/A   Clear
9:55 PM 39.0 °F 35.7 °F 23.5 °F 54% 30.14 in 10.0 mi West 4.6 mph - N/A   Clear
10:55 PM 28.0 °F 24.2 °F 25.0 °F 88% 30.15 in 10.0 mi NNW 3.5 mph - N/A   Clear
11:55 PM 26.2 °F 22.1 °F 25.3 °F 96% 30.14 in 10.0 mi NNW 3.5 mph - N/A   Clear